CDT,Max TemperatureF,Mean TemperatureF,Min TemperatureF,Max Dew PointF,MeanDew PointF,Min DewpointF,Max Humidity, Mean Humidity, Min Humidity, Max Sea Level PressureIn, Mean Sea Level PressureIn, Min Sea Level PressureIn, Max VisibilityMiles, Mean VisibilityMiles, Min VisibilityMiles, Max Wind SpeedMPH, Mean Wind SpeedMPH, Max Gust SpeedMPH,PrecipitationIn, CloudCover, Events, WindDirDegrees
2013-10-1,80,65,50,58,54,49,95,68,43,29.96,29.90,29.81,10,9,2,9,5,,0.00,0,,79
2013-10-2,82,70,59,66,62,56,94,74,50,29.96,29.91,29.83,10,8,2,18,6,25,0.00,1,,156
2013-10-3,78,69,60,68,64,59,97,82,67,29.90,29.78,29.68,10,9,1,21,11,61,1.97,5,Rain-Thunderstorm,107
2013-10-4,85,68,50,70,59,36,98,73,35,29.97,29.75,29.64,10,10,7,24,11,32,0.08,5,Rain-Thunderstorm,158
2013-10-5,52,47,42,36,33,32,68,57,45,30.00,29.95,29.88,10,10,10,26,14,34,0.00,6,,267
2013-10-6,61,52,42,44,38,31,81,67,38,30.04,29.93,29.86,10,10,10,22,17,30,0.00,6,,302
2013-10-7,73,55,37,43,38,34,93,59,27,30.12,30.06,30.01,10,10,10,15,5,23,0.00,0,,216
2013-10-8,76,62,48,46,43,41,75,52,33,30.02,29.97,29.90,10,10,10,25,11,31,0.00,0,,171
2013-10-9,78,66,54,52,49,45,74,58,37,29.99,29.96,29.92,10,10,10,18,12,25,0.00,0,,159
2013-10-10,80,68,55,58,55,52,89,67,45,29.98,29.90,29.78,10,10,10,22,11,29,0.01,0,,156
2013-10-11,78,65,52,59,49,37,82,58,23,29.93,29.74,29.66,10,10,10,23,15,37,0.00,2,Rain,203
2013-10-12,66,52,38,42,37,32,93,62,28,30.29,30.13,29.93,10,10,3,14,5,17,0.00,0,,312
2013-10-13,68,54,40,38,35,32,87,53,28,30.40,30.32,30.27,10,10,5,16,4,21,0.00,1,,119
2013-10-14,60,54,48,60,48,33,97,76,41,30.26,29.98,29.76,10,9,2,23,13,34,1.31,7,Rain-Thunderstorm,153
2013-10-15,52,47,42,48,38,36,88,71,58,30.12,30.01,29.86,10,10,10,26,14,32,0.42,5,,296
2013-10-16,56,46,37,39,36,32,90,68,40,30.12,30.05,29.97,10,10,10,13,8,16,0.00,2,,300
2013-10-17,60,47,34,42,37,32,93,72,45,30.08,29.97,29.92,10,10,10,22,8,28,0.00,3,,284
2013-10-18,47,40,32,36,31,26,96,75,43,30.16,30.10,30.04,10,10,10,10,7,,0.00,3,,291
2013-10-19,65,48,30,38,34,28,99,71,30,30.04,29.92,29.83,10,10,10,20,6,25,0.00,0,,247
2013-10-20,64,50,37,43,38,34,89,67,38,30.03,29.83,29.76,10,10,10,15,4,17,0.00,3,,312
2013-10-21,57,42,28,36,33,27,99,75,41,30.13,30.05,29.94,10,10,2,16,6,23,0.00,2,,261
2013-10-22,56,44,31,43,37,30,94,70,49,30.13,29.99,29.91,10,10,10,25,10,36,0.00,3,,315
2013-10-23,60,44,28,40,35,28,99,78,45,30.21,30.11,30.01,10,10,7,17,5,23,0.00,2,,254
2013-10-24,49,40,30,36,28,21,96,66,34,30.42,30.35,30.20,10,10,3,14,5,17,0.00,3,,346
2013-10-25,58,42,27,32,28,24,89,61,34,30.42,30.28,30.10,10,10,5,20,6,25,0.00,1,,197
2013-10-26,54,42,30,36,31,26,96,67,37,30.23,30.16,30.05,10,10,10,16,7,23,0.00,0,,321
2013-10-27,69,48,26,36,31,24,91,58,28,30.16,29.97,29.84,10,10,10,18,5,26,0.00,0,,188
2013-10-28,57,46,36,43,36,32,87,66,50,30.13,30.06,29.94,10,10,5,17,6,25,0.02,1,Rain-Thunderstorm,68
2013-10-29,56,51,46,56,52,45,100,98,90,30.11,29.98,29.90,10,3,0,12,7,,0.29,8,Fog-Rain-Thunderstorm,71
2013-10-30,53,49,45,51,48,42,100,97,90,29.96,29.86,29.77,10,6,0,14,7,21,0.45,8,Fog-Rain-Thunderstorm,328
2013-10-31,58,48,37,46,39,35,99,78,44,29.76,29.64,29.56,10,9,5,20,6,25,0.01,2,Rain,276